Medicine Lodge, KS

6:32 AM CDT on May 30, 2017 (GMT -0500)
Medicine Lodge

Weather History for KP28 - July, 2013

Change the Weather History Date:

Thursday, July 11, 2013

  Actual Average Record
Temperature  
Mean Temperature 86 °F 82 °F  
Max Temperature 94 °F 95 °F 111 °F (1954)
Min Temperature 77 °F 69 °F 57 °F (1999)
Degree Days  
Heating Degree Days 0 0  
Month to date heating degree days 0 0  
Since 1 June heating degree days 4 3  
Since 1 July heating degree days 0 0  
Cooling Degree Days 21 17  
Month to date cooling degree days 180 179  
Year to date cooling degree days 727 688  
Since 1 June cooling degree days 584 532  
Growing Degree Days 35 (Base 50)    
Moisture  
Dew Point 65 °F    
Average Humidity 57    
Maximum Humidity 82    
Minimum Humidity 32    
Precipitation  
Precipitation 0.00 in 0.10 in 2.22 in (1910)
Month to date precipitation 0.16 1.29  
Year to date precipitation 12.73 15.14  
Snow  
Snow 0.00 in 0.00 in - ()
Month to date snowfall 0.0 0.0  
Since 1 June snowfall 0.0 0.0  
Since 1 July snowfall 0.0 0.0  
Snow Depth 0.00 in    
Sea Level Pressure  
Sea Level Pressure 29.92 in    
Wind  
Wind Speed 8 mph (ESE)    
Max Wind Speed 15 mph    
Max Gust Speed 22 mph    
T = Trace of Precipitation, MM = Missing Value Source: NWS Daily Summary

Daily Weather History Graph

Daily Weather History Graph

Search for Another Location

Airport or City:

Trip Planner

Search our weather history database for the weather conditions in past years. The results will help you decide how hot, cold, wet, or windy it might be!

Date:

Astronomy

Jul. 11, 2013 Rise Set
Actual Time 6:23 AM CDT 8:56 PM CDT
Civil Twilight 5:52 AM CDT 9:26 PM CDT
Nautical Twilight 5:15 AM CDT 10:04 PM CDT
Astronomical Twilight 4:33 AM CDT 10:46 PM CDT
Moon 9:37 AM CDT (7/11) 10:43 PM CDT (7/11)
Length of Visible Light 15h 33m
Length of Day
14h 33m
Waxing Crescent, 11% of the Moon is Illuminated
Jul 11
Waxing Crescent
Jul 15
First Quarter
Jul 22
Full
Jul 29
Last Quarter
Aug 6
New

Hourly Weather History & Observations

Time (CDT) Temp. Heat Index Dew Point Humidity Pressure Visibility Wind Dir Wind Speed Gust Speed Precip Events Conditions
12:56 AM 84.0 °F 85.8 °F 64.9 °F 53% 29.94 in - SE 5.8 mph - N/A   Unknown
1:56 AM 82.0 °F 83.8 °F 64.9 °F 56% 29.93 in - East 8.1 mph - N/A   Unknown
2:56 AM 81.0 °F 83.3 °F 66.9 °F 62% 29.92 in - ESE 8.1 mph - N/A   Unknown
3:56 AM 79.0 °F - 69.1 °F 72% 29.94 in - South 3.5 mph - N/A   Unknown
4:56 AM 78.1 °F - 70.0 °F 76% 29.92 in - ESE 4.6 mph - N/A   Unknown
5:56 AM 78.1 °F - 72.0 °F 81% 29.92 in - SE 9.2 mph - N/A   Unknown
6:56 AM 77.0 °F - 72.0 °F 84% 29.93 in - East 6.9 mph - N/A   Unknown
7:56 AM 78.1 °F - 71.1 °F 79% 29.96 in - ESE 4.6 mph - N/A   Unknown
8:56 AM 80.1 °F 83.2 °F 70.0 °F 71% 29.96 in - SE 5.8 mph - N/A   Unknown
9:56 AM 82.9 °F 85.4 °F 66.9 °F 58% 29.95 in - SSE 9.2 mph - N/A   Unknown
10:56 AM 86.0 °F 88.2 °F 66.0 °F 51% 29.97 in - East 8.1 mph - N/A   Unknown
11:56 AM 88.0 °F 88.7 °F 63.0 °F 43% 29.98 in - ESE 10.4 mph - N/A   Unknown
12:56 PM 90.0 °F 90.6 °F 63.0 °F 40% 29.96 in - East 13.8 mph 18.4 mph N/A   Unknown
1:56 PM 89.1 °F 90.3 °F 64.0 °F 43% 29.95 in - East 11.5 mph - N/A   Unknown
2:56 PM 87.1 °F 88.3 °F 64.0 °F 46% 29.94 in - ESE 11.5 mph 18.4 mph N/A   Unknown
3:56 PM 87.1 °F 88.3 °F 64.0 °F 46% 29.91 in - ESE 9.2 mph - N/A   Unknown
4:56 PM 91.9 °F 93.3 °F 64.0 °F 39% 29.88 in - East 9.2 mph - N/A   Unknown
5:56 PM 93.9 °F 93.2 °F 59.0 °F 31% 29.87 in - SSE 9.2 mph - N/A   Unknown
6:56 PM 93.9 °F 93.2 °F 59.0 °F 31% 29.85 in - SE 12.7 mph - N/A   Unknown
7:56 PM 91.0 °F 90.2 °F 59.0 °F 34% 29.87 in - SSE 9.2 mph 18.4 mph N/A   Unknown
8:56 PM 88.0 °F 87.6 °F 60.1 °F 39% 29.87 in - SSE 8.1 mph - N/A   Unknown
9:56 PM 86.0 °F 86.1 °F 61.0 °F 43% 29.88 in - SE 6.9 mph - N/A   Unknown
10:56 PM 82.9 °F 83.7 °F 62.1 °F 49% 29.90 in - ESE 4.6 mph - N/A   Unknown
11:56 PM 82.9 °F 84.4 °F 64.0 °F 53% 29.90 in - East 5.8 mph - N/A   Unknown